www.pogodaiklimat.ru
ПОГОДА в Чикопи-Фолсе
Время
и дата
04:56 19.01
05:56 19.01
06:56 19.01
07:56 19.01
08:56 19.01
09:56 19.01
10:56 19.01
11:56 19.01
12:56 19.01
13:56 19.01
14:56 19.01
15:56 19.01
16:04 19.01
16:14 19.01
16:21 19.01
16:56 19.01
17:56 19.01
18:56 19.01
19:56 19.01
20:45 19.01
20:56 19.01
21:13 19.01
21:56 19.01
22:56 19.01
23:56 19.01
00:56 20.01
01:56 20.01
02:56 20.01
03:56 20.01
04:56 20.01
05:56 20.01
06:56 20.01
07:56 20.01
08:12 20.01
08:56 20.01
09:24 20.01
09:56 20.01
10:56 20.01
11:56 20.01
12:01 20.01
12:25 20.01
12:56 20.01
13:20 20.01
13:49 20.01
13:53 20.01
13:56 20.01
14:00 20.01
14:10 20.01
Ветер
(напр.,м/с)
Видим. Явления Облачность Т
(С)
Тd
(С)
f
(%)
Тe
(С)
Тes
(С)
Комфортность P
(гПа)
Po
(гПа)
Тmin
(С)
Tmax
(С)
R
(мм)
R24
(мм)
S
(см)
З 1 16 км 5/2 960 м
[Ac]
-3.0 -8.1 68 -7 -7 1014.4 1004.4
ЮЗ 1 16 км 2/2 930 м -3.0 -7.0 74 -7 -7 1015.1 1005.1
ЮЗ 1 16 км 8/0 3000 м
[Ac]
-4.4 -7.3 80 -9 -9 1015.8 1005.8 -4.9 -1.7
ЮЗ 1 16 км 8/8 960 м -2.3 -5.8 77 -6 -6 1016.4 1006.5
Ю 1 16 км 8/8 1140 м -0.9 -5.0 74 -4 -4 1016.8 1006.8
штиль 0 16 км 5/5 1140 м
[Ac]
+1.3 -5.4 61 +1 +2 1016.8 1006.8
штиль 0 16 км 5/5 1200 м
[Ac]
+2.5 -5.4 56 +2 +4 1016.1 1006.1
З 1 16 км 8/8 1260 м
[Ac]
+3.5 -5.2 53 +1 +2 1015.4 1005.5
З 1 16 км 8/8 1410 м
[Ac]
+3.6 -5.3 52 +1 +2 1014.4 1004.4 -5.3 +3.9
З 1 16 км 8/8 1320 м
[Ac]
+3.9 -6.4 47 +2 +3 1014.4 1004.4
З 3 16 км 8/8 600 м +4.1 -5.9 48 -1 0 1014.7 1004.8
З 3
{4}
6 км слабый снег 8/8 870 м +3.2 -4.3 58 -2 -2 1015.4 1005.5
СЗ 4
{6}
2 км слабый снег 10/10 90 м +2.0 -2.0 75 -5 -5 1016.1 1006.1
З 1 0 м ливневые осадки 8/8 120 м 0.0 -3.0 80 -5 -5 1015.8 1005.8
З 1 0 м ливневые осадки 8/8 120 м +1.0 -3.0 75 -3 -3 1015.8 1005.8
ЮЗ 1 16 км 5/5 1050 м
[Ac]
-0.1 -1.9 88 -4 -4 1016.4 1006.5
З 1 16 км 8/2 1500 м
[Ac]
+0.2 -3.4 77 -4 -4 1016.8 1006.8
З 2 16 км 5/0 2700 м
[Ac Ci]
+0.2 -4.6 70 -6 -6 1016.8 1006.8 -0.9 +4.3 0.3
ЮЗ 1 16 км 5/5 1650 м
[Ci]
-0.3 -5.3 69 -4 -4 1017.1 1007.1
ЮЗ 1 16 км слабый снег 8/8 1800 м 0.0 -5.0 69 -3 -3 1016.8 1006.8
ЮЗ 1 16 км слабый снег 8/8 1650 м -0.4 -4.7 73 -4 -4 1017.1 1007.1
ЮЗ 1 16 км 8/8 1800 м 0.0 -5.0 69 -3 -3 1017.1 1007.1
ЮЗ 1 16 км 5/5 1800 м -0.6 -6.0 67 -4 -4 1016.8 1006.8
штиль 0 16 км 8/8 1650 м -1.6 -6.5 69 -2 -2 1016.1 1006.1
Ю 1 16 км 10/10 1650 м -2.0 -5.8 75 -6 -6 1015.7 1005.8
ЮЗ 1 16 км 10/5 1650 м
[Ac]
-1.3 -5.7 72 -5 -5 1014.7 1004.8 -2.4 +0.8
ЮЗ 1 16 км 10/0 2700 м
[Ac]
-0.5 -5.7 68 -5 -5 1014.7 1004.8
Ю 1 16 км 10/0 2250 м
[Ac]
-1.2 -5.8 71 -5 -5 1014.0 1004.1
Ю 1 16 км 10/8 1110 м
[Ac]
-1.4 -5.6 73 -5 -5 1012.7 1002.8
штиль 0 16 км 10/8 1290 м
[Ac]
-1.6 -4.9 78 -3 -3 1012.4 1002.4
ЮВ 1 16 км 10/5 1020 м
[Ac]
-2.0 -5.5 77 -6 -6 1011.7 1001.8
штиль 0 16 км 10/0 2400 м
[Ac]
-2.8 -5.1 84 -4 -4 1011.0 1001.1 -2.8 -0.4 0.3
З 1 16 км 10/8 1800 м
[Ac]
-2.0 -4.5 83 -6 -6 1011.7 1001.8
штиль 0 16 км слабый снег 10/10 1290 м -2.0 -4.0 86 -3 -3 1011.7 1001.8
штиль 0 16 км слабый снег 10/10 1230 м -1.4 -4.1 82 -2 -2 1011.7 1001.8
С 1 16 км 8/8 1140 м -1.0 -4.0 80 -5 -4 1011.4 1001.4
штиль 0 16 км 8/5 1410 м
[Ac]
0.0 -3.6 77 -1 0 1011.3 1001.4
СЗ 2 16 км 8/5 1350 м
[Ac]
+1.4 -4.9 63 -4 -3 1010.6 1000.8
СЗ 2 16 км 10/8 1110 м
[Ac]
+2.8 -6.3 51 -2 -2 1010.0 1000.1
СЗ 3
{4}
13 км слабый снег 10/8 1110 м
[Ac]
+3.0 -6.0 52 -2 -2 1010.0 1000.1
С 2 16 км 8/8 1170 м +3.0 -5.0 56 -2 -1 1010.0 1000.1
СЗ 4 16 км слабый снег 8/8 1170 м +1.8 -7.5 50 -5 -5 1010.0 1000.1 -2.8 +3.2
СЗ 4
{5}
16 км 8/8 1260 м +3.0 -8.0 44 -3 -3 1010.0 1000.1
СЗ 4
{5}
5 км слабый снег 8/8 1080 м +2.0 -8.0 47 -4 -4 1010.6 1000.8
СЗ 4
{7}
4 км слабый снег 8/8 1080 м +2.0 -8.0 47 -5 -5 1011.0 1001.1
СЗ 4
{5}
4 км слабый снег 10/10 1080 м +1.8 -8.3 47 -5 -5 1010.6 1000.8
С 4
{7}
2 км слабый снег 10/10 480 м 0.0 -5.0 69 -7 -7 1011.3 1001.4
СЗ 3
{5}
6 км слабый снег 10/10 150 м -1.0 -5.0 74 -8 -8 1011.7 1001.8
Местоположение метеостанции Westover Air Force Base: широта 42.2000 долгота -72.5333 высота над уровнем моря 75 м.
В архиве по умолчанию представлена погода в Чикопи-Фолсе за последние 1-2 суток. Обновление информации о фактической погоде в базе происходит ежечасно! Архивные данные за месяц целиком и за предыдущие месяцы Вы можете получить, выбрав интересующий диапазон дат из раскрывающегося списка и нажав кнопку "Ввод!".
Внимание! Архив погоды МЕТАР в базе сайта по станциям, не включенным в климатический монитор, хранится не более 60 дней. Нет смысла пытаться выбрать более раннюю дату.
*Определитесь, кто Вы:
Внимание! Время в таблицах - местное (без учета летнего времени). Для получения всемирного времени необходимо вычесть поправку, которая равна -5 ч.
Смотрите также архив погоды в соседних городах и на ближайших метеорологических станциях:
Партнеры нашего сайта:      
Пояснения к столбцам:
  • Ветер - указаны скорость ветра в м/с - средняя за 10 мин, порывы в срок и между сроками (в фигурных скобках) и направление, откуда дует ветер: С - северный,
  • СВ - северо-восточный, В - восточный, ЮВ - юго-восточный, Ю - южный, ЮЗ - юго-западный, З - западный, СЗ - северо-западный.
  • Видимость - горизонтальная дальность видимости в метрах или километрах. При видимости от 1 до 10 км при отсутствии осадков обычно наблюдается дымка, при ухудшении видимости до 1 км и менее - туман. В сухую погоду видимость может ухудшаться дымом, пылью или мглою.
  • Явления - указаны атмосферные явления, наблюдавшиеся в срок или в последний час перед сроком; фигурными скобками обозначены явления, наблюдавшиеся между сроками (за 1-3 часа до срока); квадратными скобками обозначены град или гололедные отложения с указанием их диаметра в мм.
  • Облачность - указаны через наклонную черту общая и нижняя облачность в баллах и высота нижней границы облаков в метрах; квадратными скобками обозначены формы облаков: Ci - перистые, Cs - перисто-слоистые, Cc - перисто-кучевые, Ac - высококучевые, As - высокослоистые, Sc - слоисто-кучевые, Ns - слоисто-дождевые, Cu - кучевые, Cb - кучево-дождевые. Подробнее классификацию облаков см. в Атласе облаков (PDF).
  • T - Температура воздуха - температура, измеренная на высоте 2 м над землей.
  • Td - Температура точки росы - температура, при понижении до которой содержащийся в воздухе водяной пар достигнет насыщения.
  • f - Относительная влажность воздуха - влажноcть воздуха, измеренная на высоте 2 м над землей.
  • Te - Эффективная температура - температура, которую ощущает одетый по сезону человек в тени. Характеристика душности погоды. При расчете учитывается влияние влажности воздуха и скорости ветра на теплоощущения человека.
  • Tes - Эффективная температура на солнце - температура, которую ощущает человек, с поправкой на солнечный нагрев. Характеристика знойности погоды. Зависит от высоты солнца над горизонтом, облачности и скорости ветра. Ночью, в пасмурную погоду, а также при ветре 12 м/с и более поправка равна нулю.
  • P - Атмосферное давление - приведенное к уровню моря атмосферное давление.
  • Po - Атмосферное давление - измеренное на уровне метеостанции атмосферное давление.
  • Tmin - Минимальная температура - минимум температуры воздуха на высоте 2 м над землей.
  • Tmax - Максимальная температура - максимум температуры воздуха на высоте 2 м над землей.
  • R - Количество осадков - Количество выпавших осадков за период времени, мм. При наведении курсора мыши на число - период времени, за который выпало указанное количество осадков.
  • R24 - Количество осадков - Количество выпавших осадков за 24 часа, мм.
  • S - Снежный покров - Высота снежного покрова, см. При наведении курсора мыши на число - состояние снежного покрова и степень покрытия местности в баллах.